| time (UTC) | temp F | wind direction | speed MPH | gust MPH | rain 1hr in | rain 24hr in | rain mn in | humidity % | barometer mb |
| 20260902115022 | 56 | 0 | 0.0 | 0.0 | 0.00 | 0.00 | 0.00 | 89 | 1008.3 |
| 20260902114542 | 56 | 0 | 0.0 | 0.0 | 0.00 | 0.00 | 0.00 | 89 | 1008.2 |
| 20260902114017 | 56 | 0 | 0.0 | 0.0 | 0.00 | 0.00 | 0.00 | 88 | 1008.4 |
| 20260902113522 | 56 | 0 | 0.0 | 0.0 | 0.00 | 0.00 | 0.00 | 88 | 1008.4 |
| 20260902113035 | 56 | 0 | 0.0 | 0.0 | 0.00 | 0.00 | 0.00 | 88 | 1008.6 |
| 20260902112519 | 56 | 0 | 0.0 | 0.0 | 0.00 | 0.00 | 0.00 | 88 | 1008.5 |
| 20260902112019 | 56 | 0 | 0.0 | 0.0 | 0.00 | 0.00 | 0.00 | 88 | 1008.5 |
| 20260902111545 | 56 | 0 | 0.0 | 0.0 | 0.00 | 0.00 | 0.00 | 88 | 1008.6 |
| 20260902111020 | 56 | 0 | 0.0 | 0.0 | 0.00 | 0.00 | 0.00 | 89 | 1008.6 |
| 20260902110528 | 56 | 0 | 0.0 | 0.0 | 0.00 | 0.00 | 0.00 | 89 | 1008.6 |
| 20260902110041 | 56 | 0 | 0.0 | 0.0 | 0.00 | 0.00 | 0.00 | 89 | 1008.6 |
| 20260902105521 | 56 | 0 | 0.0 | 0.0 | 0.00 | 0.00 | 0.00 | 89 | 1008.7 |
| 20260902105020 | 56 | 0 | 0.0 | 0.0 | 0.00 | 0.00 | 0.00 | 89 | 1008.6 |
| 20260902104539 | 56 | 0 | 0.0 | 2.0 | 0.00 | 0.00 | 0.00 | 89 | 1008.8 |
| 20260902104020 | 56 | 0 | 0.0 | 2.0 | 0.00 | 0.00 | 0.00 | 88 | 1008.7 |
| 20260902103518 | 56 | 0 | 0.0 | 2.0 | 0.00 | 0.00 | 0.00 | 88 | 1008.8 |
| 20260902103039 | 56 | 0 | 0.0 | 2.0 | 0.00 | 0.00 | 0.00 | 88 | 1008.8 |
| 20260902102521 | 56 | 0 | 0.0 | 2.0 | 0.00 | 0.00 | 0.00 | 88 | 1008.8 |
| 20260902102021 | 56 | 0 | 0.0 | 0.0 | 0.00 | 0.00 | 0.00 | 88 | 1008.8 |
| 20260902101550 | 56 | 0 | 0.0 | 0.0 | 0.00 | 0.00 | 0.00 | 88 | 1008.7 |
| 20260902101021 | 56 | 0 | 0.0 | 0.0 | 0.00 | 0.00 | 0.00 | 88 | 1008.8 |
| 20260902100520 | 57 | 0 | 0.0 | 0.0 | 0.00 | 0.00 | 0.00 | 88 | 1008.7 |
| 20260902100037 | 57 | 0 | 0.0 | 0.0 | 0.00 | 0.00 | 0.00 | 88 | 1008.7 |
| 20260902095520 | 57 | 0 | 0.0 | 0.0 | 0.00 | 0.00 | 0.00 | 88 | 1008.8 |
| 20260902095024 | 57 | 0 | 0.0 | 0.0 | 0.00 | 0.00 | 0.00 | 88 | 1008.9 |
| 20260902094535 | 57 | 0 | 0.0 | 2.0 | 0.00 | 0.00 | 0.00 | 88 | 1008.9 |
| 20260902094026 | 57 | 0 | 0.0 | 2.0 | 0.00 | 0.00 | 0.00 | 88 | 1009.0 |
| 20260902093519 | 57 | 0 | 0.0 | 2.0 | 0.00 | 0.00 | 0.00 | 88 | 1009.1 |
| 20260902093036 | 57 | 0 | 0.0 | 2.0 | 0.00 | 0.00 | 0.00 | 88 | 1009.0 |
| 20260902092520 | 57 | 0 | 0.0 | 2.0 | 0.00 | 0.00 | 0.00 | 88 | 1009.0 |
| 20260902092022 | 57 | 0 | 0.0 | 2.0 | 0.00 | 0.00 | 0.00 | 88 | 1009.1 |
| 20260902091550 | 57 | 0 | 0.0 | 1.0 | 0.00 | 0.00 | 0.00 | 88 | 1009.3 |
| 20260902091024 | 57 | 0 | 0.0 | 1.0 | 0.00 | 0.00 | 0.00 | 88 | 1009.1 |
| 20260902090516 | 57 | 0 | 0.0 | 2.0 | 0.00 | 0.00 | 0.00 | 88 | 1009.2 |
| 20260902090041 | 57 | 0 | 0.0 | 2.0 | 0.00 | 0.00 | 0.00 | 88 | 1009.2 |
| 20260902085520 | 57 | 0 | 0.0 | 2.0 | 0.00 | 0.00 | 0.00 | 88 | 1009.4 |
| 20260902085020 | 57 | 248 | 0.0 | 2.0 | 0.00 | 0.00 | 0.00 | 88 | 1009.4 |
| 20260902084547 | 57 | 249 | 0.0 | 2.0 | 0.00 | 0.00 | 0.00 | 88 | 1009.5 |
| 20260902084021 | 57 | 0 | 0.0 | 2.0 | 0.00 | 0.00 | 0.00 | 88 | 1009.6 |
| 20260902083524 | 57 | 0 | 0.0 | 2.0 | 0.00 | 0.00 | 0.00 | 88 | 1009.6 |
| 20260902083042 | 57 | 0 | 0.0 | 2.0 | 0.00 | 0.00 | 0.00 | 88 | 1009.7 |
| 20260902082520 | 57 | 249 | 0.0 | 2.0 | 0.00 | 0.00 | 0.00 | 88 | 1009.7 |
| 20260902082020 | 57 | 238 | 0.0 | 2.0 | 0.00 | 0.00 | 0.00 | 88 | 1009.7 |
| 20260902081543 | 57 | 0 | 0.0 | 2.0 | 0.00 | 0.00 | 0.00 | 88 | 1009.7 |
| 20260902081023 | 57 | 0 | 0.0 | 0.0 | 0.00 | 0.00 | 0.00 | 88 | 1009.8 |
| 20260902080523 | 57 | 0 | 0.0 | 0.0 | 0.00 | 0.00 | 0.00 | 88 | 1009.9 |
| 20260902080040 | 57 | 0 | 0.0 | 0.0 | 0.00 | 0.00 | 0.00 | 88 | 1010.0 |
| 20260902075521 | 57 | 0 | 0.0 | 0.0 | 0.00 | 0.00 | 0.00 | 88 | 1010.1 |
| 20260902075020 | 57 | 0 | 0.0 | 0.0 | 0.00 | 0.00 | 0.00 | 88 | 1010.1 |
| 20260902074537 | 57 | 0 | 0.0 | 0.0 | 0.00 | 0.00 | 0.00 | 87 | 1010.1 |
| 20260902074021 | 57 | 0 | 0.0 | 0.0 | 0.00 | 0.00 | 0.00 | 87 | 1010.1 |
| 20260902073527 | 57 | 0 | 0.0 | 0.0 | 0.00 | 0.00 | 0.00 | 87 | 1010.1 |
| 20260902073046 | 57 | 0 | 0.0 | 0.0 | 0.00 | 0.00 | 0.00 | 87 | 1010.1 |
| 20260902072520 | 57 | 0 | 0.0 | 2.0 | 0.00 | 0.00 | 0.00 | 87 | 1010.1 |
| 20260902072018 | 57 | 0 | 0.0 | 2.0 | 0.00 | 0.00 | 0.00 | 87 | 1010.0 |
| 20260902071546 | 57 | 0 | 0.0 | 0.0 | 0.00 | 0.00 | 0.00 | 87 | 1010.0 |
| 20260902071021 | 57 | 0 | 0.0 | 0.0 | 0.00 | 0.00 | 0.00 | 87 | 1010.1 |
| 20260902070517 | 57 | 0 | 0.0 | 0.0 | 0.00 | 0.00 | 0.00 | 87 | 1010.1 |
| 20260902070043 | 57 | 0 | 0.0 | 0.0 | 0.00 | 0.00 | 0.00 | 87 | 1010.1 |
| 20260902065521 | 57 | 0 | 0.0 | 0.0 | 0.00 | 0.00 | 0.00 | 86 | 1010.1 |
| 20260902065021 | 57 | 0 | 0.0 | 0.0 | 0.00 | 0.00 | 0.00 | 86 | 1010.0 |
| 20260902064542 | 57 | 0 | 0.0 | 0.0 | 0.00 | 0.00 | 0.00 | 86 | 1010.0 |
| 20260902064020 | 57 | 0 | 0.0 | 0.0 | 0.00 | 0.00 | 0.00 | 86 | 1009.9 |
| 20260902063527 | 57 | 0 | 0.0 | 2.0 | 0.00 | 0.00 | 0.00 | 86 | 1009.8 |
| 20260902063037 | 57 | 0 | 0.0 | 2.0 | 0.00 | 0.00 | 0.00 | 85 | 1009.8 |
| 20260902062517 | 57 | 0 | 0.0 | 2.0 | 0.00 | 0.00 | 0.00 | 85 | 1009.9 |
| 20260902062016 | 57 | 0 | 0.0 | 2.0 | 0.00 | 0.00 | 0.00 | 85 | 1009.9 |
| 20260902061540 | 57 | 0 | 0.0 | 0.0 | 0.00 | 0.00 | 0.00 | 84 | 1009.9 |
| 20260902061025 | 58 | 0 | 0.0 | 0.0 | 0.00 | 0.00 | 0.00 | 84 | 1010.0 |
| 20260902060527 | 58 | 0 | 0.0 | 0.0 | 0.00 | 0.00 | 0.00 | 84 | 1010.0 |
| 20260902060040 | 58 | 0 | 0.0 | 0.0 | 0.00 | 0.00 | 0.00 | 84 | 1010.1 |
| 20260902055525 | 58 | 0 | 0.0 | 0.0 | 0.00 | 0.00 | 0.00 | 83 | 1010.0 |
| 20260902055021 | 59 | 0 | 0.0 | 0.0 | 0.00 | 0.00 | 0.00 | 83 | 1010.1 |
| 20260902054536 | 59 | 0 | 0.0 | 0.0 | 0.00 | 0.00 | 0.00 | 83 | 1010.1 |
| 20260902054021 | 59 | 0 | 0.0 | 0.0 | 0.00 | 0.00 | 0.00 | 83 | 1010.3 |
| 20260902053517 | 59 | 0 | 0.0 | 2.0 | 0.00 | 0.00 | 0.00 | 83 | 1010.3 |
| 20260902053040 | 59 | 0 | 0.0 | 2.0 | 0.00 | 0.00 | 0.00 | 83 | 1010.4 |
| 20260902052521 | 59 | 0 | 0.0 | 0.0 | 0.00 | 0.00 | 0.00 | 82 | 1010.5 |
| 20260902052021 | 59 | 0 | 0.0 | 2.0 | 0.00 | 0.00 | 0.00 | 82 | 1010.4 |
| 20260902051535 | 60 | 0 | 0.0 | 2.0 | 0.00 | 0.00 | 0.00 | 82 | 1010.4 |
| 20260902051018 | 60 | 0 | 0.0 | 2.0 | 0.00 | 0.00 | 0.00 | 83 | 1010.5 |
| 20260902050519 | 60 | 0 | 0.0 | 2.0 | 0.00 | 0.00 | 0.00 | 83 | 1010.5 |
| 20260902050040 | 60 | 0 | 0.0 | 2.0 | 0.00 | 0.00 | 0.00 | 83 | 1010.6 |
| 20260902045525 | 60 | 249 | 1.0 | 2.0 | 0.00 | 0.00 | 0.00 | 83 | 1010.7 |
| 20260902045020 | 59 | 0 | 0.0 | 0.0 | 0.00 | 0.00 | 0.00 | 82 | 1010.7 |
| 20260902044539 | 59 | 0 | 0.0 | 0.0 | 0.00 | 0.00 | 0.00 | 82 | 1010.7 |
| 20260902044020 | 59 | 0 | 0.0 | 0.0 | 0.00 | 0.00 | 0.00 | 82 | 1010.6 |
| 20260902043520 | 60 | 0 | 0.0 | 0.0 | 0.00 | 0.00 | 0.00 | 82 | 1010.5 |
| 20260902043042 | 60 | 0 | 0.0 | 0.0 | 0.00 | 0.00 | 0.00 | 82 | 1010.5 |
| 20260902042520 | 60 | 0 | 0.0 | 0.0 | 0.00 | 0.00 | 0.00 | 81 | 1010.5 |
| 20260902042016 | 60 | 0 | 0.0 | 0.0 | 0.00 | 0.00 | 0.00 | 81 | 1010.6 |
| 20260902041548 | 60 | 0 | 0.0 | 0.0 | 0.00 | 0.00 | 0.00 | 81 | 1010.6 |
| 20260902041019 | 60 | 0 | 0.0 | 0.0 | 0.00 | 0.00 | 0.00 | 81 | 1010.7 |
| 20260902040522 | 60 | 0 | 0.0 | 0.0 | 0.00 | 0.00 | 0.00 | 80 | 1010.6 |
| 20260902040039 | 60 | 0 | 0.0 | 0.0 | 0.00 | 0.00 | 0.00 | 80 | 1010.5 |
| 20260902035528 | 61 | 0 | 0.0 | 0.0 | 0.00 | 0.00 | 0.00 | 80 | 1010.4 |
| 20260902035020 | 61 | 0 | 0.0 | 2.0 | 0.00 | 0.00 | 0.00 | 80 | 1010.4 |
| 20260902034538 | 61 | 0 | 0.0 | 2.0 | 0.00 | 0.00 | 0.00 | 80 | 1010.4 |
| 20260902034020 | 61 | 305 | 0.0 | 1.0 | 0.00 | 0.00 | 0.00 | 79 | 1010.3 |
| 20260902033521 | 61 | 0 | 0.0 | 0.0 | 0.00 | 0.00 | 0.00 | 80 | 1010.3 |
| 20260902033038 | 61 | 0 | 0.0 | 0.0 | 0.00 | 0.00 | 0.00 | 80 | 1010.3 |
| 20260902032519 | 62 | 0 | 0.0 | 0.0 | 0.00 | 0.00 | 0.00 | 79 | 1010.3 |
| 20260902032027 | 62 | 0 | 0.0 | 0.0 | 0.00 | 0.00 | 0.00 | 79 | 1010.4 |
| 20260902031539 | 62 | 0 | 0.0 | 0.0 | 0.00 | 0.00 | 0.00 | 79 | 1010.3 |
| 20260902031021 | 62 | 0 | 0.0 | 2.0 | 0.00 | 0.00 | 0.00 | 79 | 1010.3 |
| 20260902030522 | 62 | 0 | 0.0 | 3.0 | 0.00 | 0.00 | 0.00 | 79 | 1010.3 |
| 20260902030037 | 63 | 238 | 0.0 | 3.0 | 0.00 | 0.00 | 0.00 | 79 | 1010.3 |
| 20260902025521 | 63 | 221 | 0.0 | 4.0 | 0.00 | 0.00 | 0.00 | 78 | 1010.3 |
| 20260902025021 | 63 | 0 | 0.0 | 4.0 | 0.00 | 0.00 | 0.00 | 78 | 1010.2 |
| 20260902024540 | 63 | 241 | 0.0 | 3.0 | 0.00 | 0.00 | 0.00 | 78 | 1010.3 |
| 20260902024017 | 63 | 228 | 1.0 | 4.0 | 0.00 | 0.00 | 0.00 | 78 | 1010.3 |
| 20260902023520 | 63 | 197 | 1.0 | 4.0 | 0.00 | 0.00 | 0.00 | 78 | 1010.3 |
| 20260902023038 | 63 | 250 | 1.0 | 3.0 | 0.00 | 0.00 | 0.00 | 78 | 1010.3 |
| 20260902022524 | 63 | 275 | 1.0 | 3.0 | 0.00 | 0.00 | 0.00 | 78 | 1010.2 |
| 20260902022019 | 63 | 228 | 1.0 | 3.0 | 0.00 | 0.00 | 0.00 | 78 | 1010.3 |
| 20260902021535 | 63 | 0 | 0.0 | 3.0 | 0.00 | 0.00 | 0.00 | 78 | 1010.3 |
| 20260902021023 | 64 | 115 | 1.0 | 3.0 | 0.00 | 0.00 | 0.00 | 77 | 1010.4 |
| 20260902020523 | 64 | 234 | 1.0 | 5.0 | 0.00 | 0.00 | 0.00 | 77 | 1010.4 |
| 20260902020049 | 64 | 235 | 0.0 | 5.0 | 0.00 | 0.00 | 0.00 | 77 | 1010.4 |
| 20260902015518 | 64 | 252 | 1.0 | 6.0 | 0.00 | 0.00 | 0.00 | 77 | 1010.4 |
| 20260902015021 | 64 | 234 | 2.0 | 6.0 | 0.00 | 0.00 | 0.00 | 77 | 1010.5 |
| 20260902014537 | 64 | 228 | 1.0 | 4.0 | 0.00 | 0.00 | 0.00 | 77 | 1010.6 |
| 20260902014021 | 64 | 234 | 1.0 | 4.0 | 0.00 | 0.00 | 0.00 | 76 | 1010.4 |
| 20260902013523 | 64 | 0 | 0.0 | 3.0 | 0.00 | 0.00 | 0.00 | 77 | 1010.3 |
| 20260902013039 | 64 | 0 | 0.0 | 2.0 | 0.00 | 0.00 | 0.00 | 77 | 1010.3 |
| 20260902012518 | 64 | 243 | 0.0 | 4.0 | 0.00 | 0.00 | 0.00 | 77 | 1010.2 |
| 20260902012018 | 64 | 235 | 0.0 | 4.0 | 0.00 | 0.00 | 0.00 | 77 | 1010.3 |
| 20260902011536 | 64 | 237 | 0.0 | 5.0 | 0.00 | 0.00 | 0.00 | 77 | 1010.2 |
| 20260902011021 | 64 | 266 | 1.0 | 5.0 | 0.00 | 0.00 | 0.00 | 76 | 1010.2 |
| 20260902010521 | 64 | 235 | 1.0 | 5.0 | 0.00 | 0.00 | 0.00 | 77 | 1010.2 |
| 20260902010037 | 64 | 241 | 1.0 | 4.0 | 0.00 | 0.00 | 0.00 | 76 | 1010.0 |
| 20260902005523 | 65 | 228 | 1.0 | 3.0 | 0.00 | 0.00 | 0.00 | 76 | 1010.1 |
| 20260902005021 | 65 | 0 | 0.0 | 4.0 | 0.00 | 0.00 | 0.00 | 76 | 1010.1 |
| 20260902004538 | 65 | 240 | 1.0 | 4.0 | 0.00 | 0.00 | 0.00 | 76 | 1010.1 |
| 20260902004029 | 65 | 192 | 1.0 | 11.0 | 0.00 | 0.00 | 0.00 | 76 | 1010.2 |
| 20260902003517 | 65 | 290 | 0.0 | 11.0 | 0.00 | 0.00 | 0.00 | 75 | 1010.3 |
| 20260902003038 | 66 | 211 | 2.0 | 9.0 | 0.00 | 0.00 | 0.00 | 74 | 1010.3 |
| 20260902002520 | 66 | 168 | 1.0 | 6.0 | 0.00 | 0.00 | 0.00 | 74 | 1010.3 |
| 20260902002022 | 67 | 253 | 1.0 | 2.0 | 0.00 | 0.00 | 0.00 | 73 | 1010.1 |
| 20260902001540 | 67 | 215 | 0.0 | 2.0 | 0.00 | 0.00 | 0.00 | 73 | 1010.1 |
| 20260902001020 | 67 | 0 | 1.0 | 3.0 | 0.00 | 0.00 | 0.00 | 73 | 1010.1 |
| 20260902000517 | 67 | 223 | 1.0 | 3.0 | 0.00 | 0.00 | 0.00 | 73 | 1010.1 |
| 20260902000041 | 67 | 218 | 1.0 | 3.0 | 0.00 | 0.00 | 0.00 | 72 | 1010.1 |
| 20260901235522 | 67 | 345 | 0.0 | 5.0 | 0.00 | 0.00 | 0.00 | 73 | 1010.0 |
| 20260901235020 | 67 | 0 | 1.0 | 6.0 | 0.00 | 0.00 | 0.00 | 73 | 1010.1 |
| 20260901234540 | 67 | 128 | 1.0 | 7.0 | 0.00 | 0.00 | 0.00 | 73 | 1010.0 |
| 20260901234020 | 67 | 208 | 3.0 | 7.0 | 0.00 | 0.00 | 0.00 | 73 | 1010.1 |
| 20260901233526 | 67 | 250 | 1.0 | 3.0 | 0.00 | 0.00 | 0.00 | 74 | 1010.2 |
| 20260901233040 | 67 | 0 | 1.0 | 3.0 | 0.00 | 0.00 | 0.00 | 76 | 1010.3 |
| 20260901232519 | 66 | 67 | 0.0 | 3.0 | 0.00 | 0.00 | 0.00 | 74 | 1010.2 |
| 20260901232023 | 66 | 308 | 0.0 | 3.0 | 0.00 | 0.00 | 0.00 | 74 | 1010.3 |
| 20260901231541 | 66 | 213 | 1.0 | 4.0 | 0.00 | 0.00 | 0.00 | 74 | 1010.2 |
| 20260901231018 | 66 | 174 | 0.0 | 5.0 | 0.00 | 0.00 | 0.00 | 75 | 1010.2 |
| 20260901230518 | 66 | 323 | 1.0 | 5.0 | 0.00 | 0.00 | 0.00 | 74 | 1010.3 |
| 20260901230050 | 66 | 257 | 1.0 | 9.0 | 0.00 | 0.00 | 0.00 | 74 | 1010.2 |
| 20260901225521 | 66 | 180 | 1.0 | 9.0 | 0.00 | 0.00 | 0.00 | 75 | 1010.2 |
| 20260901225021 | 66 | 5 | 2.0 | 9.0 | 0.00 | 0.00 | 0.00 | 75 | 1010.2 |
| 20260901224539 | 66 | 240 | 1.0 | 4.0 | 0.00 | 0.00 | 0.00 | 77 | 1010.2 |
| 20260901224016 | 66 | 16 | 1.0 | 5.0 | 0.00 | 0.00 | 0.00 | 77 | 1010.1 |
| 20260901223523 | 66 | 202 | 0.0 | 5.0 | 0.00 | 0.00 | 0.00 | 77 | 1010.1 |
| 20260901223100 | 66 | 196 | 2.0 | 5.0 | 0.00 | 0.00 | 0.00 | 77 | 1010.2 |
| 20260901222517 | 66 | 175 | 1.0 | 3.0 | 0.00 | 0.00 | 0.00 | 77 | 1010.3 |
| 20260901222021 | 65 | 258 | 1.0 | 2.0 | 0.00 | 0.00 | 0.00 | 78 | 1010.2 |
| 20260901221542 | 65 | 158 | 0.0 | 2.0 | 0.00 | 0.00 | 0.00 | 79 | 1010.2 |
| 20260901221021 | 64 | 246 | 0.0 | 2.0 | 0.00 | 0.00 | 0.00 | 78 | 1010.2 |
| 20260901220524 | 64 | 313 | 0.0 | 2.0 | 0.00 | 0.00 | 0.00 | 80 | 1010.2 |
| 20260901220048 | 63 | 0 | 0.0 | 2.0 | 0.00 | 0.00 | 0.00 | 79 | 1010.3 |
| 20260901215525 | 63 | 0 | 0.0 | 2.0 | 0.00 | 0.00 | 0.00 | 80 | 1010.4 |
| 20260901215020 | 63 | 242 | 0.0 | 5.0 | 0.00 | 0.00 | 0.00 | 79 | 1010.4 |
| 20260901214540 | 63 | 0 | 1.0 | 5.0 | 0.00 | 0.00 | 0.00 | 79 | 1010.4 |
| 20260901214026 | 63 | 263 | 1.0 | 4.0 | 0.00 | 0.00 | 0.00 | 80 | 1010.5 |
| 20260901213521 | 63 | 0 | 0.0 | 2.0 | 0.00 | 0.00 | 0.00 | 81 | 1010.6 |
| 20260901213038 | 63 | 0 | 0.0 | 2.0 | 0.00 | 0.00 | 0.00 | 79 | 1010.5 |
| 20260901212518 | 64 | 84 | 1.0 | 5.0 | 0.00 | 0.00 | 0.00 | 79 | 1010.6 |
| 20260901212028 | 65 | 225 | 2.0 | 5.0 | 0.00 | 0.00 | 0.00 | 78 | 1010.6 |
| 20260901211535 | 65 | 213 | 1.0 | 3.0 | 0.00 | 0.00 | 0.00 | 77 | 1010.5 |
| 20260901211020 | 65 | 236 | 1.0 | 4.0 | 0.00 | 0.00 | 0.00 | 76 | 1010.4 |
| 20260901210522 | 66 | 0 | 0.0 | 4.0 | 0.00 | 0.00 | 0.00 | 75 | 1010.4 |
| 20260901210046 | 66 | 236 | 0.0 | 5.0 | 0.00 | 0.00 | 0.00 | 75 | 1010.4 |
| 20260901205521 | 65 | 240 | 1.0 | 5.0 | 0.00 | 0.00 | 0.00 | 75 | 1010.5 |
| 20260901205022 | 65 | 220 | 0.0 | 3.0 | 0.00 | 0.00 | 0.00 | 76 | 1010.5 |
| 20260901204543 | 65 | 281 | 0.0 | 5.0 | 0.00 | 0.00 | 0.00 | 76 | 1010.4 |
| 20260901204020 | 65 | 285 | 0.0 | 5.0 | 0.00 | 0.00 | 0.00 | 76 | 1010.6 |
| 20260901203518 | 64 | 352 | 1.0 | 5.0 | 0.00 | 0.00 | 0.00 | 76 | 1010.6 |
| 20260901203053 | 64 | 22 | 2.0 | 5.0 | 0.00 | 0.00 | 0.00 | 77 | 1010.6 |
| 20260901202518 | 64 | 0 | 0.0 | 4.0 | 0.00 | 0.00 | 0.00 | 77 | 1010.7 |
| 20260901202021 | 64 | 230 | 0.0 | 4.0 | 0.00 | 0.00 | 0.00 | 77 | 1010.7 |
| 20260901201535 | 64 | 0 | 1.0 | 3.0 | 0.00 | 0.00 | 0.00 | 76 | 1010.6 |
| 20260901201021 | 64 | 229 | 0.0 | 3.0 | 0.00 | 0.00 | 0.00 | 77 | 1010.7 |
| 20260901200521 | 64 | 236 | 0.0 | 7.0 | 0.00 | 0.00 | 0.00 | 77 | 1010.6 |
| 20260901200053 | 64 | 200 | 0.0 | 7.0 | 0.00 | 0.00 | 0.00 | 76 | 1010.6 |
| 20260901195522 | 65 | 252 | 1.0 | 6.0 | 0.00 | 0.00 | 0.00 | 76 | 1010.6 |
| 20260901195019 | 65 | 0 | 0.0 | 6.0 | 0.00 | 0.00 | 0.00 | 75 | 1010.7 |
| 20260901194544 | 65 | 0 | 1.0 | 4.0 | 0.00 | 0.00 | 0.00 | 75 | 1010.7 |
| 20260901194021 | 65 | 215 | 1.0 | 4.0 | 0.00 | 0.00 | 0.00 | 75 | 1010.6 |
| 20260901193516 | 65 | 0 | 1.0 | 4.0 | 0.00 | 0.00 | 0.00 | 75 | 1010.6 |
| 20260901193042 | 65 | 340 | 0.0 | 4.0 | 0.00 | 0.00 | 0.00 | 75 | 1010.6 |
| 20260901192518 | 65 | 239 | 1.0 | 4.0 | 0.00 | 0.00 | 0.00 | 75 | 1010.6 |
| 20260901192021 | 65 | 0 | 0.0 | 4.0 | 0.00 | 0.00 | 0.00 | 75 | 1010.7 |
| 20260901191540 | 65 | 234 | 1.0 | 5.0 | 0.00 | 0.00 | 0.00 | 75 | 1010.6 |
| 20260901191022 | 65 | 225 | 2.0 | 7.0 | 0.00 | 0.00 | 0.00 | 75 | 1010.6 |
| 20260901190520 | 65 | 233 | 1.0 | 11.0 | 0.00 | 0.00 | 0.00 | 75 | 1010.7 |
| 20260901190100 | 65 | 209 | 2.0 | 11.0 | 0.00 | 0.00 | 0.00 | 75 | 1010.7 |
| 20260901185521 | 65 | 235 | 1.0 | 9.0 | 0.00 | 0.00 | 0.00 | 75 | 1010.7 |
| 20260901185023 | 66 | 198 | 2.0 | 9.0 | 0.00 | 0.00 | 0.00 | 74 | 1010.8 |
| 20260901184544 | 66 | 238 | 2.0 | 8.0 | 0.00 | 0.00 | 0.00 | 74 | 1010.7 |
| 20260901184023 | 66 | 221 | 1.0 | 8.0 | 0.00 | 0.00 | 0.00 | 74 | 1010.8 |
| 20260901183523 | 66 | 237 | 1.0 | 8.0 | 0.00 | 0.00 | 0.00 | 73 | 1010.6 |
| 20260901183036 | 66 | 244 | 3.0 | 9.0 | 0.00 | 0.00 | 0.00 | 73 | 1010.6 |
| 20260901182517 | 66 | 191 | 2.0 | 9.0 | 0.00 | 0.00 | 0.00 | 73 | 1010.6 |
| 20260901182020 | 67 | 240 | 1.0 | 8.0 | 0.00 | 0.00 | 0.00 | 74 | 1010.6 |
| 20260901181537 | 67 | 263 | 1.0 | 4.0 | 0.00 | 0.00 | 0.00 | 73 | 1010.6 |
| 20260901181018 | 67 | 126 | 2.0 | 4.0 | 0.00 | 0.00 | 0.00 | 74 | 1010.5 |
| 20260901180522 | 67 | 244 | 1.0 | 6.0 | 0.00 | 0.00 | 0.00 | 74 | 1010.4 |
| 20260901180037 | 67 | 181 | 0.0 | 6.0 | 0.00 | 0.00 | 0.00 | 74 | 1010.5 |
| 20260901175522 | 66 | 137 | 2.0 | 5.0 | 0.00 | 0.00 | 0.00 | 75 | 1010.3 |
| 20260901175021 | 66 | 235 | 2.0 | 10.0 | 0.00 | 0.00 | 0.00 | 75 | 1010.3 |
| 20260901174542 | 66 | 243 | 1.0 | 10.0 | 0.00 | 0.00 | 0.00 | 75 | 1010.4 |
| 20260901174021 | 66 | 262 | 1.0 | 8.0 | 0.00 | 0.00 | 0.00 | 75 | 1010.4 |
| 20260901173521 | 66 | 0 | 1.0 | 4.0 | 0.00 | 0.00 | 0.00 | 76 | 1010.4 |
| 20260901173037 | 65 | 279 | 0.0 | 8.0 | 0.00 | 0.00 | 0.00 | 76 | 1010.3 |
| 20260901172521 | 65 | 232 | 1.0 | 8.0 | 0.00 | 0.00 | 0.00 | 76 | 1010.3 |
| 20260901172024 | 65 | 237 | 2.0 | 8.0 | 0.00 | 0.00 | 0.00 | 77 | 1010.4 |
| 20260901171536 | 64 | 227 | 2.0 | 4.0 | 0.00 | 0.00 | 0.00 | 77 | 1010.4 |
| 20260901171021 | 64 | 233 | 1.0 | 3.0 | 0.00 | 0.00 | 0.00 | 77 | 1010.4 |
| 20260901170519 | 64 | 0 | 0.0 | 4.0 | 0.00 | 0.00 | 0.00 | 78 | 1010.3 |
| 20260901170041 | 63 | 225 | 1.0 | 4.0 | 0.00 | 0.00 | 0.00 | 78 | 1010.3 |
| 20260901165518 | 63 | 239 | 0.0 | 2.0 | 0.00 | 0.00 | 0.00 | 79 | 1010.4 |
| 20260901165025 | 63 | 250 | 1.0 | 7.0 | 0.00 | 0.00 | 0.00 | 79 | 1010.4 |
| 20260901164545 | 63 | 234 | 2.0 | 7.0 | 0.00 | 0.00 | 0.00 | 79 | 1010.4 |
| 20260901164021 | 63 | 231 | 2.0 | 6.0 | 0.00 | 0.00 | 0.00 | 79 | 1010.4 |
| 20260901163520 | 63 | 225 | 1.0 | 6.0 | 0.00 | 0.00 | 0.00 | 79 | 1010.4 |
| 20260901163040 | 63 | 211 | 1.0 | 7.0 | 0.00 | 0.00 | 0.00 | 80 | 1010.3 |
| 20260901162519 | 63 | 0 | 0.0 | 8.0 | 0.00 | 0.00 | 0.00 | 80 | 1010.4 |
| 20260901162019 | 62 | 217 | 2.0 | 8.0 | 0.00 | 0.00 | 0.00 | 79 | 1010.4 |
| 20260901161539 | 62 | 238 | 2.0 | 7.0 | 0.00 | 0.00 | 0.00 | 80 | 1010.4 |
| 20260901161021 | 62 | 248 | 1.0 | 5.0 | 0.00 | 0.00 | 0.00 | 81 | 1010.5 |
| 20260901160525 | 62 | 210 | 1.0 | 8.0 | 0.00 | 0.00 | 0.00 | 81 | 1010.6 |
| 20260901160039 | 61 | 224 | 3.0 | 8.0 | 0.00 | 0.00 | 0.00 | 81 | 1010.6 |
| 20260901155521 | 61 | 239 | 2.0 | 8.0 | 0.00 | 0.00 | 0.00 | 82 | 1010.5 |
| 20260901155021 | 61 | 232 | 2.0 | 7.0 | 0.00 | 0.00 | 0.00 | 83 | 1010.5 |
| 20260901154540 | 61 | 0 | 0.0 | 3.0 | 0.00 | 0.00 | 0.00 | 85 | 1010.4 |
| 20260901154018 | 60 | 248 | 0.0 | 2.0 | 0.00 | 0.00 | 0.00 | 86 | 1010.4 |
| 20260901153517 | 60 | 0 | 0.0 | 3.0 | 0.00 | 0.00 | 0.00 | 87 | 1010.6 |
| 20260901153043 | 59 | 0 | 0.0 | 3.0 | 0.00 | 0.00 | 0.00 | 88 | 1010.6 |
| 20260901152520 | 59 | 0 | 0.0 | 3.0 | 0.00 | 0.00 | 0.00 | 88 | 1010.7 |
| 20260901152018 | 58 | 236 | 1.0 | 3.0 | 0.00 | 0.00 | 0.00 | 89 | 1010.7 |
| 20260901151535 | 58 | 0 | 0.0 | 3.0 | 0.00 | 0.00 | 0.00 | 89 | 1010.7 |
| 20260901151023 | 58 | 221 | 0.0 | 4.0 | 0.00 | 0.00 | 0.00 | 89 | 1010.6 |
| 20260901150520 | 57 | 183 | 0.0 | 4.0 | 0.00 | 0.00 | 0.00 | 89 | 1010.5 |
| 20260901150043 | 57 | 183 | 0.0 | 4.0 | 0.00 | 0.00 | 0.00 | 89 | 1010.4 |
| 20260901145521 | 56 | 0 | 0.0 | 2.0 | 0.00 | 0.00 | 0.00 | 89 | 1010.4 |
| 20260901145020 | 56 | 0 | 0.0 | 0.0 | 0.00 | 0.00 | 0.00 | 89 | 1010.4 |
| 20260901144541 | 56 | 0 | 0.0 | 0.0 | 0.00 | 0.00 | 0.00 | 89 | 1010.4 |
| 20260901144022 | 55 | 0 | 0.0 | 0.0 | 0.00 | 0.00 | 0.00 | 89 | 1010.3 |
| 20260901143517 | 55 | 0 | 0.0 | 0.0 | 0.00 | 0.00 | 0.00 | 89 | 1010.3 |
| 20260901143040 | 55 | 0 | 0.0 | 0.0 | 0.00 | 0.00 | 0.00 | 89 | 1010.4 |
| 20260901142518 | 55 | 0 | 0.0 | 0.0 | 0.00 | 0.00 | 0.00 | 89 | 1010.4 |
| 20260901142023 | 55 | 0 | 0.0 | 0.0 | 0.00 | 0.00 | 0.00 | 89 | 1010.3 |
| 20260901141535 | 54 | 0 | 0.0 | 0.0 | 0.00 | 0.00 | 0.00 | 89 | 1010.3 |
| 20260901141026 | 54 | 0 | 0.0 | 0.0 | 0.00 | 0.00 | 0.00 | 89 | 1010.3 |
| 20260901140521 | 54 | 0 | 0.0 | 0.0 | 0.00 | 0.00 | 0.00 | 89 | 1010.3 |
| 20260901140037 | 54 | 0 | 0.0 | 0.0 | 0.00 | 0.00 | 0.00 | 89 | 1010.4 |
| 20260901135521 | 53 | 0 | 0.0 | 0.0 | 0.00 | 0.00 | 0.00 | 89 | 1010.2 |
| 20260901135024 | 53 | 0 | 0.0 | 0.0 | 0.00 | 0.00 | 0.00 | 89 | 1010.2 |
| 20260901134540 | 53 | 0 | 0.0 | 0.0 | 0.00 | 0.00 | 0.00 | 89 | 1010.2 |
| 20260901134024 | 52 | 0 | 0.0 | 0.0 | 0.00 | 0.00 | 0.00 | 89 | 1010.1 |
| 20260901133521 | 52 | 0 | 0.0 | 0.0 | 0.00 | 0.00 | 0.00 | 89 | 1010.3 |
| 20260901133046 | 52 | 0 | 0.0 | 0.0 | 0.00 | 0.00 | 0.00 | 89 | 1010.3 |
| 20260901132521 | 52 | 0 | 0.0 | 0.0 | 0.00 | 0.00 | 0.00 | 89 | 1010.3 |
| 20260901132021 | 52 | 0 | 0.0 | 0.0 | 0.00 | 0.00 | 0.00 | 89 | 1010.2 |
| 20260901131540 | 51 | 0 | 0.0 | 0.0 | 0.00 | 0.00 | 0.00 | 89 | 1010.2 |
| 20260901131020 | 51 | 0 | 0.0 | 0.0 | 0.00 | 0.00 | 0.00 | 88 | 1010.1 |
| 20260901130520 | 51 | 0 | 0.0 | 0.0 | 0.00 | 0.00 | 0.00 | 88 | 1010.2 |
| 20260901130040 | 51 | 0 | 0.0 | 0.0 | 0.00 | 0.00 | 0.00 | 88 | 1010.2 |
| 20260901125523 | 51 | 0 | 0.0 | 0.0 | 0.00 | 0.00 | 0.00 | 88 | 1010.2 |
| 20260901125023 | 51 | 0 | 0.0 | 0.0 | 0.00 | 0.00 | 0.00 | 88 | 1010.1 |
| 20260901124536 | 51 | 0 | 0.0 | 0.0 | 0.00 | 0.00 | 0.00 | 88 | 1010.1 |
| 20260901124021 | 51 | 0 | 0.0 | 0.0 | 0.00 | 0.00 | 0.00 | 88 | 1010.2 |
| 20260901123521 | 51 | 0 | 0.0 | 0.0 | 0.00 | 0.00 | 0.00 | 88 | 1010.1 |
| 20260901123040 | 51 | 0 | 0.0 | 0.0 | 0.00 | 0.00 | 0.00 | 88 | 1010.1 |
| 20260901122522 | 51 | 0 | 0.0 | 0.0 | 0.00 | 0.00 | 0.00 | 88 | 1010.1 |
| 20260901122020 | 52 | 0 | 0.0 | 0.0 | 0.00 | 0.00 | 0.00 | 88 | 1010.1 |
| 20260901121540 | 51 | 0 | 0.0 | 0.0 | 0.00 | 0.00 | 0.00 | 88 | 1010.1 |
| 20260901121020 | 51 | 0 | 0.0 | 0.0 | 0.00 | 0.00 | 0.00 | 88 | 1010.1 |
| 20260901120521 | 51 | 0 | 0.0 | 0.0 | 0.00 | 0.00 | 0.00 | 88 | 1009.9 |
| 20260901120047 | 51 | 0 | 0.0 | 0.0 | 0.00 | 0.00 | 0.00 | 88 | 1009.9 |
| 20260901115524 | 52 | 0 | 0.0 | 0.0 | 0.00 | 0.00 | 0.00 | 88 | 1009.9 |